Weather History for KANE - January, 2013

Change the Weather History Date:

Saturday, January 5, 2013

  Actual Average Record
Temperature  
Mean Temperature 17 °F -  
Max Temperature 26 °F 22 °F 48 °F (2012)
Min Temperature 8 °F 8 °F -20 °F (2014)
Degree Days  
Heating Degree Days 48    
Moisture  
Dew Point 14 °F    
Average Humidity 88    
Maximum Humidity 100    
Minimum Humidity 64    
Precipitation  
Precipitation 0.00 in - - ()
Sea Level Pressure  
Sea Level Pressure 29.97 in    
Wind  
Wind Speed 4 mph (SW)    
Max Wind Speed 10 mph    
Max Gust Speed -    
Visibility 10 miles    
Events      
Averages and records for this station are not official NWS values.
T = Trace of Precipitation, MM = Missing Value Source: NWS Daily Summary

Daily Weather History Graph

Daily Weather History Graph

Search for Another Location

Airport or City:

Trip Planner

Search our weather history database for the weather conditions in past years. The results will help you decide how hot, cold, wet, or windy it might be!

Date:

Astronomy

Jan. 05, 2013 Rise Set
Actual Time 7:51 AM CST 4:45 PM CST
Civil Twilight 7:17 AM CST 5:19 PM CST
Nautical Twilight 6:40 AM CST 5:56 PM CST
Astronomical Twilight 6:05 AM CST 6:31 PM CST
Moon 12:48 AM CST (1/5) 11:44 AM CST (1/5)
Length of Visible Light 10h 01m
Length of Day
8h 54m
Last Quarter, 44% of the Moon is Illuminated
Jan 5
Last Quarter
Jan 11
New
Jan 18
First Quarter
Jan 26
Full
Feb 3
Last Quarter

Hourly Weather History & Observations

Time (CST) Temp. Windchill Dew Point Humidity Pressure Visibility Wind Dir Wind Speed Gust Speed Precip Events Conditions
12:14 AM 15.8 °F - 12.2 °F 86% 30.07 in 10.0 mi Calm Calm - N/A   Clear
12:34 AM 12.2 °F - 10.4 °F 92% 30.07 in 10.0 mi Calm Calm - N/A   Clear
12:54 AM 12.2 °F - 10.4 °F 92% 30.07 in 10.0 mi Calm Calm - N/A   Clear
1:14 AM 10.4 °F 4.0 °F 8.6 °F 92% 30.06 in 10.0 mi SSE 3.5 mph - N/A   Clear
1:34 AM 14.0 °F - 12.2 °F 93% 30.05 in 10.0 mi Calm Calm - N/A   Clear
1:53 AM 12.2 °F 6.1 °F 10.4 °F 92% 30.05 in 10.0 mi SSE 3.5 mph - N/A   Clear
2:14 AM 12.2 °F 1.7 °F 12.2 °F 100% 30.06 in 10.0 mi SSE 6.9 mph - N/A   Clear
2:34 AM 17.6 °F 10.7 °F 15.8 °F 93% 30.06 in 10.0 mi SE 4.6 mph - N/A   Clear
2:53 AM 17.6 °F 9.3 °F 15.8 °F 93% 30.05 in 10.0 mi SE 5.8 mph - N/A   Clear
3:14 AM 15.8 °F 8.6 °F 15.8 °F 100% 30.04 in 10.0 mi ESE 4.6 mph - N/A   Clear
3:34 AM 14.0 °F 8.2 °F 12.2 °F 93% 30.04 in 10.0 mi East 3.5 mph - N/A   Clear
3:53 AM 12.2 °F 2.9 °F 10.4 °F 92% 30.02 in 10.0 mi East 5.8 mph - N/A   Clear
4:34 AM 15.8 °F - 12.2 °F 86% 30.00 in 10.0 mi Calm Calm - N/A   Clear
4:53 AM 12.2 °F - 10.4 °F 92% 29.99 in 10.0 mi Calm Calm - N/A   Clear
5:14 AM 8.6 °F 0.1 °F 3.2 °F 79% 29.99 in 10.0 mi SE 4.6 mph - N/A   Clear
5:34 AM 14.0 °F 6.5 °F 12.2 °F 93% 29.97 in 10.0 mi ESE 4.6 mph - N/A   Clear
5:53 AM 14.0 °F - 12.2 °F 93% 29.97 in 10.0 mi Calm Calm - N/A   Clear
6:14 AM 14.0 °F 5.1 °F 12.2 °F 93% 29.97 in 10.0 mi SE 5.8 mph - N/A   Clear
6:34 AM 14.0 °F 5.1 °F 12.2 °F 93% 29.96 in 10.0 mi SE 5.8 mph - N/A   Clear
6:45 AM 14.0 °F 5.1 °F 12.2 °F 93% 29.96 in 10.0 mi SE 5.8 mph - N/A   Clear
6:53 AM 14.0 °F 3.9 °F 12.2 °F 93% 29.96 in 10.0 mi SSE 6.9 mph - N/A   Clear
7:45 AM 12.2 °F 2.9 °F 10.4 °F 92% 29.95 in 10.0 mi SSE 5.8 mph - N/A   Clear
8:45 AM 10.4 °F 0.8 °F 8.6 °F 92% 29.93 in 10.0 mi SE 5.8 mph - N/A   Clear
9:45 AM 17.6 °F 12.3 °F 14.0 °F 86% 29.92 in 10.0 mi South 3.5 mph - N/A   Partly Cloudy
9:55 AM 17.6 °F 12.3 °F 14.0 °F 86% 29.92 in 10.0 mi South 3.5 mph - N/A   Partly Cloudy
11:45 AM 21.2 °F 14.9 °F 15.8 °F 80% 29.90 in 10.0 mi West 4.6 mph - N/A   Scattered Clouds
1:00 PM 24.8 °F 19.1 °F 15.8 °F 69% 29.86 in 10.0 mi West 4.6 mph - N/A   Scattered Clouds
1:50 PM 24.8 °F 20.5 °F 15.8 °F 69% 29.84 in 10.0 mi WNW 3.5 mph - N/A   Partly Cloudy
2:45 PM 26.6 °F 22.6 °F 15.8 °F 64% 29.84 in 10.0 mi WSW 3.5 mph - N/A   Mostly Cloudy
3:45 PM 26.6 °F 21.2 °F 15.8 °F 64% 29.84 in 10.0 mi West 4.6 mph - N/A   Mostly Cloudy
4:50 PM 23.0 °F 14.7 °F 15.8 °F 74% 29.87 in 10.0 mi West 6.9 mph - N/A   Mostly Cloudy
5:45 PM 21.2 °F 13.6 °F 15.8 °F 80% 29.88 in 10.0 mi West 5.8 mph - N/A   Mostly Cloudy
6:45 PM 21.2 °F 10.1 °F 15.8 °F 80% 29.91 in 10.0 mi WNW 10.4 mph - N/A   Mostly Cloudy
7:45 PM 19.4 °F 7.9 °F 15.8 °F 86% 29.93 in 10.0 mi NW 10.4 mph - N/A   Mostly Cloudy
8:45 PM 17.6 °F 8.2 °F 15.8 °F 93% 29.95 in 10.0 mi WNW 6.9 mph - N/A   Mostly Cloudy
9:13 PM 17.6 °F 9.3 °F 15.8 °F 93% 29.94 in 10.0 mi West 5.8 mph - N/A   Scattered Clouds
9:34 PM 17.6 °F 7.3 °F 15.8 °F 93% 29.95 in 10.0 mi WNW 8.1 mph - N/A   Clear
9:54 PM 19.4 °F 8.6 °F 15.8 °F 86% 29.96 in 10.0 mi West 9.2 mph - N/A   Mostly Cloudy
10:14 PM 19.4 °F 8.6 °F 17.6 °F 93% 29.97 in 10.0 mi WNW 9.2 mph - N/A   Overcast
10:34 PM 19.4 °F 9.5 °F 17.6 °F 93% 29.98 in 10.0 mi WNW 8.1 mph - N/A   Overcast
10:54 PM 21.2 °F 12.6 °F 17.6 °F 86% 29.98 in 10.0 mi WNW 6.9 mph - N/A   Scattered Clouds
11:14 PM 19.4 °F 9.5 °F 17.6 °F 93% 29.98 in 10.0 mi WNW 8.1 mph - N/A   Scattered Clouds
11:34 PM 19.4 °F 9.5 °F 17.6 °F 93% 29.98 in 10.0 mi WNW 8.1 mph - N/A   Scattered Clouds
11:54 PM 21.2 °F 10.1 °F 17.6 °F 86% 29.99 in 10.0 mi WNW 10.4 mph - N/A   Mostly Cloudy